When you browse on this site, cookies collect data to enhance your experience and personalize the content and advertising you see.
Visit our Privacy Policy to learn more. By continuing to use the site, you agree to this use of cookies and data.
  • In Sweden
  • List of Countries
  • For 7 days
  • Water Temperature
  • Satellite Maps
  • Weather Map
  • Weather Widgets
  • user-avatar
    Login

    Hourly Weather Bang Sai

    Today, 20 May, Monday

    Time Temperature Precipitation Wind Pressure Humidity
    00:00 +36°C° 0 mm 4 mps 756 mmHg 54%
    01:00 +35°C° 0 mm 3 mps 756 mmHg 57%
    02:00 +35°C° 0 mm 3 mps 755 mmHg 60%
    03:00 +34°C° 0 mm 3 mps 755 mmHg 63%
    04:00 +34°C° 0 mm 2 mps 755 mmHg 65%
    05:00 +34°C° 0 mm 2 mps 755 mmHg 65%
    06:00 +34°C° 0 mm 2 mps 755 mmHg 65%
    07:00 +34°C° 0 mm 2 mps 756 mmHg 65%
    08:00 +35°C° 0 mm 3 mps 756 mmHg 59%
    09:00 +37°C° 0 mm 3 mps 756 mmHg 53%
    10:00 +38°C° 0 mm 3 mps 756 mmHg 47%
    11:00 +39°C° 0 mm 3 mps 756 mmHg 43%
    12:00 +40°C° 0 mm 3 mps 755 mmHg 40%
    13:00 +42°C° 0 mm 3 mps 755 mmHg 36%
    14:00 +42°C° 0 mm 3 mps 754 mmHg 37%
    15:00 +41°C° 0 mm 2 mps 754 mmHg 37%
    16:00 +41°C° 0 mm 2 mps 753 mmHg 37%
    17:00 +40°C° 0.4 mm 3 mps 753 mmHg 40%
    18:00 +40°C° 0.4 mm 4 mps 753 mmHg 42%
    19:00 +38°C° 0.4 mm 4 mps 754 mmHg 44%
    20:00 +37°C° 1.4 mm 4 mps 754 mmHg 50%
    21:00 +35°C° 1.4 mm 4 mps 755 mmHg 56%
    22:00 +34°C° 1.4 mm 4 mps 755 mmHg 62%
    23:00 +34°C° 0.1 mm 4 mps 755 mmHg 65%

    Tomorrow, 21 May, Tuesday

    Time Temperature Precipitation Wind Pressure Humidity
    00:00 +34°C° 0.1 mm 3 mps 755 mmHg 68%
    01:00 +34°C° 0.1 mm 3 mps 755 mmHg 71%
    02:00 +33°C° 0.2 mm 3 mps 755 mmHg 72%
    03:00 +32°C° 0.2 mm 2 mps 755 mmHg 73%
    04:00 +32°C° 0.2 mm 2 mps 754 mmHg 75%
    05:00 +32°C° 0.1 mm 2 mps 754 mmHg 74%
    06:00 +32°C° 0.1 mm 2 mps 755 mmHg 73%
    07:00 +32°C° 0.1 mm 2 mps 755 mmHg 72%
    08:00 +35°C° 0 mm 2 mps 755 mmHg 64%
    09:00 +36°C° 0 mm 3 mps 756 mmHg 56%
    10:00 +38°C° 0 mm 3 mps 756 mmHg 48%
    11:00 +39°C° 0 mm 2 mps 756 mmHg 44%
    12:00 +41°C° 0 mm 2 mps 755 mmHg 40%
    13:00 +42°C° 0 mm 2 mps 754 mmHg 35%
    14:00 +42°C° 0 mm 2 mps 754 mmHg 35%
    15:00 +41°C° 0 mm 2 mps 753 mmHg 35%
    16:00 +41°C° 0 mm 1 mps 753 mmHg 35%
    17:00 +40°C° 0.1 mm 2 mps 753 mmHg 39%
    18:00 +39°C° 0.1 mm 3 mps 754 mmHg 42%
    19:00 +38°C° 0.1 mm 3 mps 754 mmHg 46%
    20:00 +37°C° 0.3 mm 4 mps 754 mmHg 52%
    21:00 +36°C° 0.3 mm 4 mps 755 mmHg 58%
    22:00 +34°C° 0.3 mm 4 mps 755 mmHg 64%
    23:00 +34°C° 0.9 mm 4 mps 755 mmHg 67%

    Day after tomorrow, 22 May, Wednesday

    Time Temperature Precipitation Wind Pressure Humidity
    00:00 +33°C° 0.9 mm 3 mps 755 mmHg 70%
    01:00 +32°C° 0.9 mm 2 mps 756 mmHg 73%
    02:00 +31°C° 0 mm 2 mps 755 mmHg 74%
    03:00 +31°C° 0 mm 2 mps 754 mmHg 74%
    04:00 +31°C° 0 mm 2 mps 754 mmHg 75%
    05:00 +31°C° 0 mm 2 mps 754 mmHg 74%
    06:00 +31°C° 0 mm 2 mps 755 mmHg 73%
    07:00 +32°C° 0 mm 2 mps 755 mmHg 72%
    08:00 +34°C° 0 mm 2 mps 755 mmHg 65%
    09:00 +35°C° 0 mm 2 mps 756 mmHg 58%
    10:00 +37°C° 0 mm 3 mps 756 mmHg 51%
    11:00 +38°C° 0 mm 3 mps 755 mmHg 46%
    12:00 +39°C° 0 mm 3 mps 755 mmHg 41%
    13:00 +40°C° 0 mm 3 mps 754 mmHg 36%
    14:00 +41°C° 0 mm 2 mps 754 mmHg 34%
    15:00 +41°C° 0 mm 2 mps 753 mmHg 33%
    16:00 +42°C° 0 mm 2 mps 752 mmHg 31%
    17:00 +41°C° 0 mm 2 mps 753 mmHg 33%
    18:00 +40°C° 0 mm 2 mps 753 mmHg 36%
    19:00 +39°C° 0 mm 3 mps 753 mmHg 38%
    20:00 +38°C° 0.7 mm 3 mps 754 mmHg 45%
    21:00 +36°C° 0.7 mm 3 mps 755 mmHg 53%
    22:00 +35°C° 0.7 mm 3 mps 755 mmHg 60%
    23:00 +35°C° 0.6 mm 3 mps 755 mmHg 62%

    23 May, Thursday

    Time Temperature Precipitation Wind Pressure Humidity
    00:00 +34°C° 0.6 mm 3 mps 755 mmHg 64%
    01:00 +34°C° 0.6 mm 2 mps 755 mmHg 66%
    02:00 +34°C° 0.1 mm 2 mps 755 mmHg 67%
    03:00 +32°C° 0.1 mm 2 mps 754 mmHg 68%
    04:00 +32°C° 0.1 mm 2 mps 754 mmHg 70%
    05:00 +32°C° 0 mm 2 mps 755 mmHg 69%
    06:00 +32°C° 0 mm 2 mps 755 mmHg 69%
    07:00 +32°C° 0 mm 2 mps 755 mmHg 68%
    08:00 +34°C° 0 mm 2 mps 756 mmHg 62%
    09:00 +36°C° 0 mm 2 mps 756 mmHg 55%
    10:00 +37°C° 0 mm 3 mps 756 mmHg 49%
    11:00 +38°C° 0 mm 2 mps 756 mmHg 46%
    12:00 +39°C° 0 mm 2 mps 755 mmHg 42%
    13:00 +40°C° 0 mm 2 mps 755 mmHg 39%
    14:00 +39°C° 0.3 mm 1 mps 754 mmHg 41%
    15:00 +39°C° 0.3 mm 1 mps 754 mmHg 43%
    16:00 +35°C° 0.3 mm 0 mps 753 mmHg 45%
    17:00 +36°C° 0.8 mm 1 mps 754 mmHg 50%
    18:00 +36°C° 0.8 mm 3 mps 754 mmHg 55%
    19:00 +35°C° 0.8 mm 4 mps 755 mmHg 60%
    20:00 +33°C° 15.9 mm 3 mps 755 mmHg 70%
    21:00 +30°C° 15.9 mm 3 mps 755 mmHg 79%
    22:00 +29°C° 15.9 mm 3 mps 756 mmHg 89%
    23:00 +29°C° 2.6 mm 2 mps 756 mmHg 87%

    24 May, Friday

    Time Temperature Precipitation Wind Pressure Humidity
    00:00 +29°C° 2.6 mm 2 mps 756 mmHg 85%
    01:00 +29°C° 2.6 mm 2 mps 755 mmHg 83%
    02:00 +29°C° 0 mm 2 mps 755 mmHg 82%
    03:00 +30°C° 0 mm 2 mps 755 mmHg 81%
    04:00 +30°C° 0 mm 2 mps 755 mmHg 80%
    05:00 +30°C° 0 mm 2 mps 755 mmHg 78%
    06:00 +30°C° 0 mm 2 mps 756 mmHg 76%
    07:00 +30°C° 0 mm 3 mps 756 mmHg 75%
    08:00 +33°C° 0 mm 3 mps 757 mmHg 67%
    09:00 +35°C° 0 mm 4 mps 757 mmHg 60%
    10:00 +36°C° 0 mm 4 mps 757 mmHg 52%
    11:00 +38°C° 0 mm 4 mps 756 mmHg 47%
    12:00 +40°C° 0 mm 4 mps 756 mmHg 42%
    13:00 +41°C° 0 mm 4 mps 755 mmHg 38%
    14:00 +40°C° 0 mm 3 mps 754 mmHg 39%
    15:00 +39°C° 0 mm 3 mps 754 mmHg 41%
    16:00 +39°C° 0 mm 3 mps 753 mmHg 42%
    17:00 +38°C° 0 mm 3 mps 754 mmHg 45%
    18:00 +37°C° 0 mm 3 mps 754 mmHg 47%
    19:00 +36°C° 0 mm 3 mps 754 mmHg 50%
    20:00 +35°C° 0.2 mm 3 mps 755 mmHg 53%
    21:00 +35°C° 0.2 mm 3 mps 755 mmHg 57%
    22:00 +34°C° 0.2 mm 2 mps 755 mmHg 61%
    23:00 +33°C° 0 mm 3 mps 755 mmHg 61%

    25 May, Saturday

    Time Temperature Precipitation Wind Pressure Humidity
    00:00 +33°C° 0 mm 3 mps 755 mmHg 62%
    01:00 +31°C° 0 mm 3 mps 754 mmHg 62%
    02:00 +31°C° 0 mm 3 mps 754 mmHg 63%
    03:00 +30°C° 0 mm 3 mps 754 mmHg 65%
    04:00 +30°C° 0 mm 3 mps 754 mmHg 66%
    05:00 +30°C° 0 mm 3 mps 754 mmHg 66%
    06:00 +30°C° 0 mm 3 mps 755 mmHg 67%
    07:00 +30°C° 0 mm 3 mps 755 mmHg 67%
    08:00 +33°C° 0 mm 4 mps 755 mmHg 62%
    09:00 +34°C° 0 mm 4 mps 755 mmHg 57%
    10:00 +36°C° 0 mm 4 mps 756 mmHg 51%
    11:00 +37°C° 0 mm 4 mps 755 mmHg 46%
    12:00 +40°C° 0 mm 4 mps 754 mmHg 41%
    13:00 +41°C° 0 mm 4 mps 753 mmHg 37%
    14:00 +40°C° 0 mm 3 mps 753 mmHg 37%
    15:00 +39°C° 0 mm 3 mps 752 mmHg 38%
    16:00 +39°C° 0 mm 2 mps 752 mmHg 39%
    17:00 +38°C° 0 mm 3 mps 752 mmHg 42%
    18:00 +37°C° 0 mm 3 mps 753 mmHg 45%
    19:00 +37°C° 0 mm 4 mps 753 mmHg 48%
    20:00 +36°C° 0 mm 4 mps 754 mmHg 51%
    21:00 +35°C° 0 mm 4 mps 754 mmHg 55%
    22:00 +35°C° 0 mm 4 mps 754 mmHg 59%
    23:00 +34°C° 0.1 mm 4 mps 754 mmHg 60%
    Show more